星链-3584 (STARLINK-3584 )

导读 | 星芒AI

STARLINK-3584 是 SpaceX 为其 Starlink 项目发射的一颗低轨宽带通信卫星,属于该系列的第 3584 颗。该卫星旨在为全球用户提供高速互联网服务,尤其关注网络覆盖不足的地区。它运行在约 550 公里的轨道高度,采用先进的通信技术,支持高带宽和低延迟传输。STARLINK-3584 与其他 Starlink 卫星协同工作,构建起一个庞大的近地轨道卫星网络,助力实现全球互联网接入的目标。

基本信息
目录编号:
51885
目录名称:
STARLINK-3584
国际标识:
2022-022AK
轨道中心:
EARTH
卫星名称:
星链-3584
卫星全名:
星链-3584 (STARLINK-3584 )
卫星状态:
在轨 (已飞行1388 天)
发射日期:
2022-03-03 UTC
国别 :
美国 (US)
星等 :
--
轨道信息
数据来源 国际轨道数据
星历时间: 2025-12-20T08:13:39+0800
12小时前
查看轨道信息
半长轴: 6917.882km
偏心率: 0.0001472
轨道倾角: 53.219°
近地点辐角 87.327°
升交点赤经 356.821°
平近点角 272.790°
近地点: 538.726km
远地点: 540.764km
周期: 95.438分钟
每日圈数: 15.088395
详细信息
固有亮度:
5
最大亮度:
2.5
卫星平台:
Starlink v1.5
覆盖范围:
全球
运营商:
太空探索技术公司
运营商所在国:
美国
制造商(研发单位):
太空探索技术公司
制造商所在国:
美国
使用方式:
暂无
卫星简介
星链(Starlink)计划是由太空探索技术公司(SpaceX)提出的一个巨型低轨卫星互联网星座项目,计划在2019年至2024年间在太空搭建由约1.2万颗卫星组成的“星链”网络,其中1584颗将部署在地球上空550千米处的近地轨道,并从2020年开始工作。该卫星仍在工作。
2D轨道图
3D轨道图
轨道高度分析图
轨道倾角分析图
轨道综合分析图
查看轨道综合分析图